Location: B?dargowo
(53.3916°N, 14.4413°E)
Time: 08:39:22
(UTC+00:00)

Cosmos 2278 Rocket - Pass Details

Date: 05 February 2023
Orbit: 841 x 845 km, 71.0° (Epoch: 19 March)

Event Time Altitude Azimuth Distance (km) Brightness Sun altitude
Rises 19:26:12 0° 325° (NW) 3,418 6.1 -31.8°
Reaches altitude 10° 19:28:44 10° 320° (NW) 2,478 5.3 -32.2°
Enters shadow 19:34:05 45° 250° (WSW) 1,140 3.0 -32.9°
